KCIKMI Weather Reports


Display with metric or nautical units.
time (UTC)temp
F
wind
direction
speed
MPH
gust
MPH
rain 1hr
in
rain 24hr
in
rain mn
in
humidity
%
barometer
mb
20260903133052 71 177 0.0 1.0 0.01 0.18 0.18 97 1012.6
20260903131549 71 192 0.0 0.0 0.00 0.17 0.17 97 1012.9
20260903130050 71 192 0.0 0.0 0.00 0.17 0.17 97 1012.7
20260903124558 71 192 0.0 0.0 0.00 0.17 0.17 97 1012.7
20260903123047 71 192 0.0 0.0 0.00 0.17 0.17 97 1012.7
20260903121552 71 174 0.0 0.0 0.00 0.17 0.17 97 1013.0
20260903120045 71 171 0.0 2.0 0.00 0.17 0.17 97 1013.1
20260903114544 70 210 0.0 2.0 0.00 0.17 0.17 97 1013.3
20260903113042 70 199 0.0 0.0 0.01 0.17 0.17 97 1013.2
20260903111541 70 202 0.0 0.0 0.01 0.17 0.17 98 1013.3
20260903110040 70 197 0.0 0.0 0.01 0.17 0.17 98 1013.2
20260903104538 69 218 0.0 0.0 0.01 0.17 0.17 98 1013.2
20260903103036 68 161 0.0 0.0 0.00 0.16 0.16 97 1012.8
20260903101536 68 204 0.0 0.0 0.00 0.16 0.16 97 1012.7
20260903100033 67 204 0.0 0.0 0.01 0.16 0.16 97 1012.8
20260903094528 67 206 0.0 0.0 0.13 0.16 0.16 97 1013.3
20260903093026 66 206 0.0 0.0 0.14 0.16 0.16 96 1013.4
20260903091532 66 206 0.0 0.0 0.15 0.16 0.16 96 1013.5
20260903090026 66 206 0.0 0.0 0.15 0.15 0.15 95 1013.4
20260903084522 66 206 0.0 0.0 0.03 0.03 0.03 94 1013.5
20260903083018 66 206 0.0 0.0 0.02 0.02 0.02 93 1013.9
20260903081517 66 206 0.0 0.0 0.01 0.01 0.01 92 1014.2
20260903080015 66 206 0.0 0.0 0.00 0.00 0.00 92 1014.0
20260903074513 66 206 0.0 0.0 0.00 0.00 0.00 91 1014.4
20260903073011 66 206 0.0 0.0 0.00 0.00 0.00 90 1014.4
20260903071507 66 206 0.0 0.0 0.00 0.00 0.00 89 1014.7
20260903070007 66 205 0.0 0.0 0.00 0.00 0.00 88 1015.0
20260903064504 66 205 0.0 0.0 0.00 0.00 0.00 86 1015.2
20260903063125 67 205 0.0 0.0 0.00 0.00 0.00 83 1015.5
20260903061559 67 205 0.0 0.0 0.00 0.00 0.00 82 1015.7
20260903060056 67 205 0.0 0.0 0.00 0.00 0.00 82 1016.0
20260903054555 67 205 0.0 0.0 0.00 0.00 0.00 82 1016.2
20260903053055 67 205 0.0 0.0 0.00 0.00 0.00 81 1016.5
20260903051550 67 205 0.0 0.0 0.00 0.00 0.00 80 1016.6
20260903050048 67 205 0.0 0.0 0.00 0.00 0.00 80 1016.7
20260903044547 67 209 0.0 0.0 0.00 0.00 0.00 81 1016.8
20260903043059 67 209 0.0 0.0 0.00 0.00 0.00 80 1017.0
20260903041541 67 183 0.0 0.0 0.00 0.00 0.00 81 1016.7
20260903040038 66 183 0.0 0.0 0.00 0.00 0.00 81 1016.8
20260903034539 66 183 0.0 0.0 0.00 0.00 0.00 80 1016.6
20260903033036 66 183 0.0 0.0 0.00 0.00 0.00 80 1016.8
20260903031543 66 181 0.0 0.0 0.00 0.00 0.00 80 1017.0
20260903030031 66 181 0.0 0.0 0.00 0.00 0.00 80 1017.5
20260903024530 66 181 0.0 1.0 0.00 0.00 0.00 80 1017.7
20260903023030 67 200 0.0 0.0 0.00 0.00 0.00 80 1017.7
20260903021529 66 169 0.0 0.0 0.00 0.00 0.00 79 1017.6
20260903020038 66 349 0.0 1.0 0.00 0.00 0.00 79 1017.4
20260903014527 67 349 0.0 0.0 0.00 0.00 0.00 78 1017.5
20260903013027 67 349 0.0 0.0 0.00 0.00 0.00 76 1018.0
20260903011526 67 349 0.0 0.0 0.00 0.00 0.00 76 1018.1
20260903010026 68 349 0.0 0.0 0.00 0.00 0.00 76 1018.1
20260903004526 68 349 0.0 0.0 0.00 0.00 0.00 75 1017.9
20260903003026 68 349 0.0 0.0 0.00 0.00 0.00 76 1017.8
20260903001524 68 341 0.0 1.0 0.00 0.00 0.00 74 1018.1
20260903000027 69 360 0.0 0.0 0.00 0.00 0.00 73 1018.2
20260902234528 69 360 0.0 1.0 0.00 0.00 0.00 73 1018.6
20260902233024 69 212 0.0 1.0 0.00 0.00 0.00 73 1018.7
20260902231525 70 214 0.0 0.0 0.00 0.00 0.00 71 1018.7
20260902230022 70 203 0.0 0.0 0.00 0.00 0.00 71 1019.0
20260902224521 70 215 0.0 1.0 0.00 0.01 0.00 69 1018.9
20260902223037 71 189 0.0 0.0 0.00 0.01 0.00 69 1018.9
20260902221522 71 231 0.0 0.0 0.00 0.01 0.00 68 1018.6
20260902220020 72 319 0.0 0.0 0.00 0.01 0.00 67 1018.3
20260902214519 73 280 0.0 2.0 0.00 0.03 0.00 68 1018.2
20260902213019 73 297 0.0 1.0 0.00 0.03 0.00 68 1018.0
20260902211520 74 117 0.0 2.0 0.00 0.03 0.00 67 1018.2
20260902210017 74 333 0.0 1.0 0.00 0.04 0.00 66 1018.5
20260902204531 75 204 0.0 0.0 0.00 0.04 0.00 67 1018.6
20260902203015 75 200 0.0 0.0 0.00 0.04 0.00 66 1018.6
20260902201514 75 198 0.0 1.0 0.00 0.04 0.00 64 1018.5
20260902200011 76 242 0.0 2.0 0.00 0.12 0.00 62 1018.5
20260902194510 78 215 0.0 2.0 0.00 0.12 0.00 62 1018.8
20260902193008 79 189 0.0 4.0 0.00 0.12 0.00 59 1018.8
20260902191506 79 207 0.0 3.0 0.00 0.12 0.00 60 1018.7
20260902190006 80 209 0.0 3.0 0.00 0.18 0.00 59 1018.9
20260902184501 79 183 1.0 3.0 0.00 0.18 0.00 60 1019.0
20260902183111 79 231 0.0 3.0 0.00 0.18 0.00 61 1018.9
20260902181612 79 306 0.0 2.0 0.00 0.18 0.00 61 1018.7
20260902180056 78 121 0.0 3.0 0.00 0.18 0.00 61 1018.9
20260902174557 79 228 0.0 1.0 0.00 0.27 0.00 59 1019.0
20260902173101 78 179 0.0 2.0 0.00 0.27 0.00 62 1018.9
20260902171549 77 350 0.0 2.0 0.00 0.27 0.00 66 1019.0
20260902170051 77 179 0.0 3.0 0.00 0.27 0.00 66 1019.2
20260902164544 76 219 0.0 1.0 0.00 0.27 0.00 68 1019.3
20260902163044 76 11 0.0 1.0 0.00 0.27 0.00 68 1019.4
20260902161539 75 321 0.0 1.0 0.00 0.27 0.00 70 1019.4
20260902160037 74 4 0.0 2.0 0.00 0.27 0.00 69 1019.7
20260902154538 73 31 0.0 1.0 0.00 0.48 0.00 71 1020.0
20260902153034 73 244 0.0 1.0 0.00 0.48 0.00 70 1019.9
20260902151536 73 360 0.0 2.0 0.00 0.48 0.00 72 1020.1
20260902150029 72 285 0.0 1.0 0.00 0.48 0.00 72 1019.9
20260902144526 71 323 0.0 5.0 0.00 0.79 0.00 76 1020.1
20260902143023 70 351 0.0 4.0 0.00 0.79 0.00 81 1019.8
20260902141521 70 334 2.0 4.0 0.00 0.79 0.00 81 1019.7
20260902140020 69 349 0.0 1.0 0.00 0.79 0.00 83 1019.6
20260902134518 69 338 0.0 1.0 0.00 0.96 0.00 85 1019.2